FW6907 Weather Reports


time (UTC)temp
C
wind
direction
speed
KPH
gust
KPH
rain 1hr
cm
rain 24hr
cm
rain mn
cm
humidity
%
barometer
mb
20260510083201 18 208 6.4 8.0 0.00 0.00 0.00 72 1012.4
20260510082651 18 213 4.8 8.0 0.00 0.00 0.00 71 1012.2
20260510082147 18 247 8.0 11.3 0.00 0.00 0.00 70 1012.3
20260510081642 19 222 1.6 3.2 0.00 0.00 0.00 69 1012.3
20260510081137 19 214 14.5 17.7 0.00 0.00 0.00 68 1012.1
20260510080631 19 199 9.7 11.3 0.00 0.00 0.00 69 1011.8
20260510080128 19 200 4.8 8.0 0.00 0.00 0.00 69 1011.8
20260510075625 19 191 4.8 4.8 0.00 0.00 0.00 70 1012.0
20260510075122 19 212 6.4 8.0 0.00 0.00 0.00 69 1011.9
20260510074619 20 202 1.6 3.2 0.00 0.00 0.00 68 1011.9
20260510074115 20 197 4.8 4.8 0.00 0.00 0.00 67 1011.8
20260510073611 20 214 4.8 4.8 0.00 0.00 0.00 66 1012.0
20260510073108 20 212 4.8 8.0 0.00 0.00 0.00 67 1012.1
20260510072559 20 196 4.8 4.8 0.00 0.00 0.00 65 1012.0
20260510072055 20 209 3.2 3.2 0.00 0.00 0.00 64 1012.2
20260510071551 20 211 3.2 3.2 0.00 0.00 0.00 63 1012.2
20260510071049 19 214 3.2 3.2 0.00 0.00 0.00 62 1012.3
20260510070546 20 194 4.8 4.8 0.00 0.00 0.00 61 1012.3
20260510070043 20 206 6.4 8.0 0.00 0.00 0.00 60 1012.1
20260510065539 19 212 3.2 3.2 0.00 0.00 0.00 59 1012.1
20260510065035 19 242 3.2 3.2 0.00 0.00 0.00 58 1012.2
20260510064532 18 242 3.2 3.2 0.00 0.00 0.00 59 1012.3
20260510064029 18 242 3.2 3.2 0.00 0.00 0.00 58 1012.5
20260510063526 19 238 4.8 4.8 0.00 0.00 0.00 57 1012.4
20260510063023 19 212 1.6 1.6 0.00 0.00 0.00 56 1012.4
20260510062519 20 212 1.6 1.6 0.00 0.00 0.00 55 1012.5
20260510062014 20 211 4.8 4.8 0.00 0.00 0.00 55 1012.6
20260510061511 20 211 3.2 3.2 0.00 0.00 0.00 55 1012.4
20260510061007 20 203 4.8 4.8 0.00 0.00 0.00 55 1012.6
20260510060504 20 194 4.8 4.8 0.00 0.00 0.00 55 1012.6
20260510060000 20 201 4.8 4.8 0.00 0.00 0.00 55 1012.6
20260510055456 20 217 3.2 3.2 0.00 0.00 0.00 54 1012.7
20260510054954 20 212 6.4 9.7 0.00 0.00 0.00 54 1012.6
20260510054449 20 210 3.2 4.8 0.00 0.00 0.00 56 1012.6
20260510053945 19 236 0.0 1.6 0.00 0.00 0.00 57 1012.6
20260510053440 18 240 0.0 0.0 0.00 0.00 0.00 57 1012.5
20260510052937 18 239 0.0 0.0 0.00 0.00 0.00 57 1012.6
20260510052432 18 240 0.0 0.0 0.00 0.00 0.00 57 1012.5
20260510051929 18 240 0.0 0.0 0.00 0.00 0.00 55 1012.4
20260510051425 19 240 0.0 0.0 0.00 0.00 0.00 55 1012.5
20260510050922 19 240 0.0 0.0 0.00 0.00 0.00 54 1012.4
20260510050419 19 240 0.0 0.0 0.00 0.00 0.00 54 1012.4
20260510045916 20 240 0.0 0.0 0.00 0.00 0.00 53 1012.4
20260510045413 19 240 3.2 3.2 0.00 0.00 0.00 53 1012.4
20260510044910 19 247 0.0 1.6 0.00 0.00 0.00 53 1012.4
20260510044407 19 258 3.2 3.2 0.00 0.00 0.00 53 1012.1
20260510043903 20 225 3.2 3.2 0.00 0.00 0.00 53 1012.1
20260510043359 20 221 1.6 3.2 0.00 0.00 0.00 52 1012.3
20260510042857 20 222 1.6 3.2 0.00 0.00 0.00 53 1012.1
20260510042353 20 215 1.6 1.6 0.00 0.00 0.00 52 1012.2
20260510041849 20 213 3.2 3.2 0.00 0.00 0.00 51 1012.3
20260510041347 20 220 1.6 1.6 0.00 0.00 0.00 52 1012.2
20260510040844 20 219 1.6 1.6 0.00 0.00 0.00 51 1012.3
20260510040341 20 220 1.6 3.2 0.00 0.00 0.00 53 1012.3
20260510035836 20 214 1.6 3.2 0.00 0.00 0.00 51 1012.1
20260510035332 20 210 0.0 0.0 0.00 0.00 0.00 52 1011.9
20260510034828 20 206 0.0 0.0 0.00 0.00 0.00 52 1011.8
20260510034326 20 210 0.0 1.6 0.00 0.00 0.00 51 1011.7
20260510033822 20 236 0.0 0.0 0.00 0.00 0.00 50 1011.4
20260510033319 20 236 0.0 0.0 0.00 0.00 0.00 49 1011.6
20260510032816 20 236 0.0 0.0 0.00 0.00 0.00 51 1011.5
20260510032312 19 235 0.0 0.0 0.00 0.00 0.00 50 1011.5
20260510031808 19 235 0.0 0.0 0.00 0.00 0.00 53 1011.2
20260510031303 20 236 0.0 0.0 0.00 0.00 0.00 54 1011.2
20260510030757 20 236 0.0 0.0 0.00 0.00 0.00 53 1011.3
20260510030254 20 236 0.0 0.0 0.00 0.00 0.00 49 1011.4
20260510025752 20 235 0.0 0.0 0.00 0.00 0.00 50 1011.3
20260510025249 21 236 0.0 0.0 0.00 0.00 0.00 48 1011.1
20260510024746 21 236 0.0 0.0 0.00 0.00 0.00 47 1011.1
20260510024242 21 236 0.0 0.0 0.00 0.00 0.00 48 1011.0
20260510023738 21 235 0.0 0.0 0.00 0.00 0.00 48 1010.8
20260510023235 20 235 0.0 0.0 0.00 0.00 0.00 48 1010.7
20260510022732 20 235 0.0 0.0 0.00 0.00 0.00 50 1010.3
20260510022232 21 235 0.0 0.0 0.00 0.00 0.00 50 1010.4
20260510021726 21 235 0.0 0.0 0.00 0.00 0.00 50 1010.3
20260510021224 21 235 0.0 0.0 0.00 0.00 0.00 49 1010.2
20260510020725 21 235 0.0 0.0 0.00 0.00 0.00 49 1010.2
20260510020220 21 235 0.0 0.0 0.00 0.00 0.00 48 1009.9
20260510015716 21 235 0.0 0.0 0.00 0.00 0.00 48 1009.8
20260510015212 21 235 0.0 0.0 0.00 0.00 0.00 49 1009.8
20260510014708 21 235 0.0 0.0 0.00 0.00 0.00 49 1009.8
20260510014205 22 235 0.0 0.0 0.00 0.00 0.00 48 1009.7
20260510013700 22 235 0.0 0.0 0.00 0.00 0.00 47 1009.7
20260510013156 22 235 0.0 0.0 0.00 0.00 0.00 47 1009.7
20260510012656 22 235 0.0 0.0 0.00 0.00 0.00 46 1009.5
20260510012151 23 235 0.0 0.0 0.00 0.00 0.00 46 1009.4
20260510011647 23 235 0.0 0.0 0.00 0.00 0.00 45 1009.5
20260510011143 23 235 0.0 0.0 0.00 0.00 0.00 44 1009.3
20260510010638 23 235 1.6 1.6 0.00 0.00 0.00 46 1009.3
20260510010136 23 235 0.0 0.0 0.00 0.00 0.00 47 1009.2
20260510005631 23 235 0.0 0.0 0.00 0.00 0.00 46 1009.2
20260510005129 23 235 0.0 0.0 0.00 0.00 0.00 46 1009.2
20260510004627 23 235 0.0 0.0 0.00 0.00 0.00 46 1009.3
20260510004125 23 235 0.0 0.0 0.00 0.00 0.00 47 1009.3
20260510003622 24 235 1.6 1.6 0.00 0.00 0.00 46 1009.2
20260510003117 24 234 0.0 1.6 0.00 0.00 0.00 47 1009.0
20260510002612 24 234 0.0 0.0 0.00 0.00 0.00 48 1009.1
20260510002109 24 234 1.6 1.6 0.00 0.00 0.00 45 1009.2
20260510001606 24 228 1.6 3.2 0.00 0.00 0.00 44 1009.3
20260510001106 24 230 4.8 4.8 0.00 0.00 0.00 43 1009.1
20260510000605 25 251 4.8 4.8 0.00 0.00 0.00 43 1009.2
20260509235559 25 256 4.8 4.8 0.00 0.00 0.00 41 1009.2
20260509235056 25 252 4.8 4.8 0.00 0.00 0.00 40 1009.4
20260509234552 25 267 1.6 3.2 0.00 0.00 0.00 42 1009.2
20260509234050 25 276 3.2 3.2 0.00 0.00 0.00 41 1009.1
20260509233547 25 231 4.8 8.0 0.00 0.00 0.00 40 1009.2
20260509233044 25 219 1.6 1.6 0.00 0.00 0.00 41 1009.0
20260509232541 25 215 4.8 4.8 0.00 0.00 0.00 41 1009.0
20260509232038 25 218 3.2 3.2 0.00 0.00 0.00 41 1009.0
20260509231534 26 232 0.0 0.0 0.00 0.00 0.00 41 1009.2
20260509231032 25 211 1.6 1.6 0.00 0.00 0.00 40 1009.2
20260509230528 26 215 3.2 3.2 0.00 0.00 0.00 40 1009.2
20260509230025 26 220 0.0 1.6 0.00 0.00 0.00 40 1009.2
20260509225520 26 235 0.0 0.0 0.00 0.00 0.00 38 1009.3
20260509225016 25 219 4.8 4.8 0.00 0.00 0.00 38 1009.3
20260509224512 26 255 4.8 4.8 0.00 0.00 0.00 36 1009.4
20260509224009 26 217 3.2 3.2 0.00 0.00 0.00 39 1009.3
20260509223506 25 205 6.4 8.0 0.00 0.00 0.00 38 1009.1
20260509223004 25 214 3.2 3.2 0.00 0.00 0.00 39 1009.1
20260509222459 25 248 1.6 3.2 0.00 0.00 0.00 39 1009.2
20260509221955 26 209 0.0 0.0 0.00 0.00 0.00 43 1008.9
20260509221451 26 212 0.0 0.0 0.00 0.00 0.00 44 1009.0
20260509220948 25 212 0.0 0.0 0.00 0.00 0.00 41 1009.2
20260509220443 25 210 0.0 1.6 0.00 0.00 0.00 44 1009.1
20260509215940 25 209 0.0 0.0 0.00 0.00 0.00 44 1009.1
20260509215435 25 209 0.0 1.6 0.00 0.00 0.00 44 1009.2
20260509214933 25 209 0.0 0.0 0.00 0.00 0.00 44 1009.2
20260509214430 25 209 1.6 1.6 0.00 0.00 0.00 43 1009.2
20260509213926 25 195 0.0 0.0 0.00 0.00 0.00 42 1009.2
20260509213422 25 224 3.2 4.8 0.00 0.00 0.00 39 1009.2
20260509212920 26 193 1.6 3.2 0.00 0.00 0.00 39 1009.3
20260509212418 27 261 1.6 3.2 0.00 0.00 0.00 36 1009.4
20260509211913 27 222 1.6 1.6 0.00 0.00 0.00 38 1009.5
20260509211409 29 231 4.8 4.8 0.00 0.00 0.00 32 1009.5
20260509210906 28 265 0.0 1.6 0.00 0.00 0.00 34 1009.4
20260509210403 28 261 0.0 0.0 0.00 0.00 0.00 35 1009.6
20260509205858 28 265 4.8 8.0 0.00 0.00 0.00 33 1009.6
20260509205352 28 298 0.0 0.0 0.00 0.00 0.00 38 1009.6
20260509204849 28 298 1.6 3.2 0.00 0.00 0.00 37 1009.7
20260509204345 28 328 0.0 1.6 0.00 0.00 0.00 37 1009.6
20260509203841 28 251 0.0 1.6 0.00 0.00 0.00 33 1009.7
20260509203333 28 266 0.0 0.0 0.00 0.00 0.00 34 1009.4
20260509202830 27 247 0.0 0.0 0.00 0.00 0.00 37 1009.8
20260509202326 27 263 0.0 1.6 0.00 0.00 0.00 36 1009.8
20260509201825 27 305 0.0 0.0 0.00 0.00 0.00 38 1009.8
20260509201322 28 230 1.6 1.6 0.00 0.00 0.00 35 1009.7
20260509200819 28 274 0.0 0.0 0.00 0.00 0.00 37 1009.8
20260509200314 28 244 1.6 1.6 0.00 0.00 0.00 37 1009.7
20260509195811 28 267 1.6 3.2 0.00 0.00 0.00 35 1009.8
20260509195307 27 267 0.0 1.6 0.00 0.00 0.00 35 1009.9
20260509194805 27 251 1.6 1.6 0.00 0.00 0.00 37 1010.0
20260509194301 28 220 4.8 4.8 0.00 0.00 0.00 34 1010.2
20260509193758 27 240 4.8 4.8 0.00 0.00 0.00 37 1010.1
20260509193252 27 221 1.6 1.6 0.00 0.00 0.00 39 1010.3
20260509192749 27 238 0.0 0.0 0.00 0.00 0.00 36 1010.2
20260509192244 26 266 3.2 4.8 0.00 0.00 0.00 37 1010.2
20260509191740 27 235 3.2 3.2 0.00 0.00 0.00 37 1010.1
20260509191236 27 314 3.2 3.2 0.00 0.00 0.00 37 1010.2
20260509190732 27 345 0.0 0.0 0.00 0.00 0.00 36 1010.3
20260509190229 27 336 0.0 1.6 0.00 0.00 0.00 40 1010.2
20260509185727 27 336 1.6 1.6 0.00 0.00 0.00 39 1010.3
20260509185223 26 216 0.0 0.0 0.00 0.00 0.00 40 1010.4
20260509184721 27 241 0.0 1.6 0.00 0.00 0.00 38 1010.2
20260509184218 27 232 0.0 1.6 0.00 0.00 0.00 37 1010.4
20260509183714 27 272 1.6 1.6 0.00 0.00 0.00 39 1010.3
20260509183209 27 304 0.0 0.0 0.00 0.00 0.00 36 1010.7
20260509182705 27 250 1.6 3.2 0.00 0.00 0.00 38 1010.4
20260509182203 26 277 0.0 0.0 0.00 0.00 0.00 37 1010.6
20260509181700 26 311 0.0 0.0 0.00 0.00 0.00 34 1010.4
20260509181158 26 311 1.6 1.6 0.00 0.00 0.00 33 1010.6
20260509180654 26 311 1.6 1.6 0.00 0.00 0.00 38 1010.6
20260509180150 26 311 1.6 1.6 0.00 0.00 0.00 38 1010.4
20260509175647 26 324 1.6 1.6 0.00 0.00 0.00 40 1010.7
20260509175144 26 280 1.6 3.2 0.00 0.00 0.00 44 1010.4
20260509174639 26 237 8.0 11.3 0.00 0.00 0.00 41 1010.7
20260509174134 26 278 1.6 1.6 0.00 0.00 0.00 43 1010.7
20260509173630 25 225 0.0 0.0 0.00 0.00 0.00 47 1010.7
20260509173126 25 236 4.8 8.0 0.00 0.00 0.00 46 1010.7
20260509172623 25 174 6.4 8.0 0.00 0.00 0.00 47 1010.7
20260509172119 25 223 1.6 3.2 0.00 0.00 0.00 46 1010.8
20260509171615 25 223 4.8 4.8 0.00 0.00 0.00 51 1010.9
20260509171112 24 237 0.0 0.0 0.00 0.00 0.00 52 1010.9
20260509170608 24 201 4.8 4.8 0.00 0.00 0.00 54 1010.9
20260509170104 24 236 3.2 4.8 0.00 0.00 0.00 55 1010.8
20260509165603 23 221 1.6 1.6 0.00 0.00 0.00 58 1010.9
20260509165058 23 235 4.8 8.0 0.00 0.00 0.00 56 1011.0
20260509164554 23 236 3.2 3.2 0.00 0.00 0.00 60 1010.8
20260509164049 23 228 8.0 9.7 0.00 0.00 0.00 61 1010.8
20260509163548 23 199 3.2 4.8 0.00 0.00 0.00 62 1011.1
20260509163043 23 201 1.6 3.2 0.00 0.00 0.00 62 1011.1
20260509162540 22 223 4.8 4.8 0.00 0.00 0.00 65 1011.0
20260509162036 22 209 3.2 3.2 0.00 0.00 0.00 63 1010.9
20260509161533 22 230 6.4 9.7 0.00 0.00 0.00 64 1010.9
20260509161028 22 248 3.2 3.2 0.00 0.00 0.00 64 1011.0
20260509160524 22 241 8.0 8.0 0.00 0.00 0.00 64 1011.2
20260509160020 21 206 1.6 3.2 0.00 0.00 0.00 67 1010.9
20260509155516 22 233 6.4 8.0 0.00 0.00 0.00 67 1011.2
20260509155012 22 213 4.8 4.8 0.00 0.00 0.00 67 1010.9
20260509154509 21 225 4.8 4.8 0.00 0.00 0.00 68 1011.0
20260509154007 21 250 3.2 3.2 0.00 0.00 0.00 69 1010.9
20260509153503 21 233 4.8 4.8 0.00 0.00 0.00 71 1010.9
20260509153000 21 195 4.8 4.8 0.00 0.00 0.00 73 1010.9
20260509152455 21 284 0.0 0.0 0.00 0.00 0.00 71 1010.7
20260509151947 20 202 1.6 3.2 0.00 0.00 0.00 73 1010.6
20260509151443 20 189 0.0 0.0 0.00 0.00 0.00 74 1010.7
20260509150941 20 254 1.6 3.2 0.00 0.00 0.00 72 1010.8
20260509150438 20 256 0.0 1.6 0.00 0.00 0.00 77 1010.7
20260509145937 19 238 4.8 4.8 0.00 0.00 0.00 77 1010.9
20260509145436 20 238 8.0 9.7 0.00 0.00 0.00 77 1010.7
20260509144932 19 212 1.6 3.2 0.00 0.00 0.00 78 1010.7
20260509144429 19 193 4.8 8.0 0.00 0.00 0.00 78 1010.6
20260509143926 19 248 1.6 3.2 0.00 0.00 0.00 78 1010.8
20260509143424 18 240 1.6 1.6 0.00 0.00 0.00 80 1010.7
20260509142920 18 231 0.0 0.0 0.00 0.00 0.00 81 1010.7
20260509142416 18 231 4.8 4.8 0.00 0.00 0.00 82 1010.8
20260509141912 18 229 3.2 4.8 0.00 0.00 0.00 81 1010.8
20260509141409 17 222 3.2 3.2 0.00 0.00 0.00 83 1010.7
20260509140906 17 242 1.6 3.2 0.00 0.00 0.00 82 1010.7
20260509140402 17 225 4.8 4.8 0.00 0.00 0.00 83 1010.6
20260509135901 17 239 0.0 1.6 0.00 0.00 0.00 83 1010.3
20260509135358 17 256 3.2 3.2 0.00 0.00 0.00 83 1010.4
20260509134855 17 239 3.2 3.2 0.00 0.00 0.00 82 1010.4
20260509134352 16 235 0.0 0.0 0.00 0.00 0.00 85 1010.4
20260509133849 16 235 1.6 3.2 0.00 0.00 0.00 86 1010.2
20260509133346 16 235 1.6 3.2 0.00 0.00 0.00 87 1010.3
20260509132845 15 236 1.6 3.2 0.00 0.00 0.00 88 1010.1
20260509132342 15 229 3.2 3.2 0.00 0.00 0.00 89 1010.3
20260509131839 15 237 4.8 4.8 0.00 0.00 0.00 91 1010.1
20260509131336 14 236 4.8 4.8 0.00 0.00 0.00 91 1010.1
20260509130832 14 236 3.2 3.2 0.00 0.00 0.00 92 1010.0
20260509130328 13 236 1.6 3.2 0.00 0.00 0.00 92 1010.1
20260509125825 13 236 1.6 1.6 0.00 0.00 0.00 92 1009.9
20260509125321 13 236 0.0 1.6 0.00 0.00 0.00 93 1010.1
20260509124818 13 236 1.6 1.6 0.00 0.00 0.00 94 1010.1
20260509124314 13 234 1.6 1.6 0.00 0.00 0.00 94 1010.0
20260509123813 13 234 3.2 3.2 0.00 0.00 0.00 94 1010.1
20260509123310 12 216 3.2 3.2 0.00 0.00 0.00 94 1010.0
20260509122805 12 238 1.6 1.6 0.00 0.00 0.00 95 1009.9
20260509122305 12 238 1.6 1.6 0.00 0.00 0.00 95 1009.9
20260509121759 12 238 1.6 1.6 0.00 0.00 0.00 95 1009.7
20260509121256 12 238 0.0 1.6 0.00 0.00 0.00 95 1009.7
20260509120755 12 237 3.2 4.8 0.00 0.00 0.00 95 1009.7
20260509120252 12 238 4.8 4.8 0.00 0.00 0.00 95 1009.6
20260509115750 12 235 6.4 8.0 0.00 0.00 0.00 95 1009.6
20260509115247 12 243 8.0 9.7 0.00 0.00 0.00 95 1009.6
20260509114745 12 224 6.4 8.0 0.00 0.00 0.00 95 1009.6
20260509114244 12 238 4.8 8.0 0.00 0.00 0.00 95 1009.6
20260509113742 12 229 4.8 4.8 0.00 0.00 0.00 95 1009.5
20260509113238 12 239 3.2 3.2 0.00 0.00 0.00 95 1009.5
20260509112736 12 239 4.8 4.8 0.00 0.00 0.00 95 1009.3
20260509112233 12 226 4.8 4.8 0.00 0.00 0.00 95 1009.3
20260509111730 12 250 1.6 1.6 0.00 0.00 0.00 95 1009.3
20260509111226 12 250 0.0 0.0 0.00 0.00 0.00 94 1009.1
20260509110724 12 250 0.0 0.0 0.00 0.00 0.00 94 1009.1
20260509110221 12 250 1.6 1.6 0.00 0.00 0.00 94 1009.0
20260509105719 12 250 1.6 1.6 0.00 0.00 0.00 93 1009.0
20260509105216 12 250 1.6 3.2 0.00 0.00 0.00 93 1009.1
20260509104713 12 250 4.8 4.8 0.00 0.00 0.00 93 1008.9
20260509104210 13 250 1.6 1.6 0.00 0.00 0.00 92 1008.9
20260509103708 13 250 1.6 1.6 0.00 0.00 0.00 92 1008.7
20260509103205 13 250 1.6 3.2 0.00 0.00 0.00 92 1008.7
20260509102703 13 249 1.6 3.2 0.00 0.00 0.00 92 1008.8
20260509102200 13 249 1.6 1.6 0.00 0.00 0.00 92 1008.8
20260509101656 13 249 0.0 0.0 0.00 0.00 0.00 91 1008.8
20260509101153 13 249 0.0 0.0 0.00 0.00 0.00 91 1009.0
20260509100650 13 249 1.6 3.2 0.00 0.00 0.00 91 1009.1
20260509100147 13 249 0.0 0.0 0.00 0.00 0.00 91 1009.0
20260509095643 13 249 0.0 0.0 0.00 0.00 0.00 90 1009.1
20260509095141 13 249 0.0 0.0 0.00 0.00 0.00 90 1009.0
20260509094637 13 249 1.6 3.2 0.00 0.00 0.00 90 1009.1
20260509094134 13 249 3.2 3.2 0.00 0.00 0.00 90 1009.2
20260509093633 13 249 3.2 3.2 0.00 0.00 0.00 89 1009.3
20260509093129 13 249 0.0 1.6 0.00 0.00 0.00 89 1009.2
20260509092627 13 249 3.2 3.2 0.00 0.00 0.00 89 1009.3
20260509092126 13 249 1.6 1.6 0.00 0.00 0.00 89 1009.4
20260509091624 13 249 1.6 1.6 0.00 0.00 0.00 89 1009.3
20260509091119 13 249 0.0 0.0 0.00 0.00 0.00 89 1009.3
20260509090617 13 249 0.0 0.0 0.00 0.00 0.00 89 1009.3
20260509090115 13 249 0.0 0.0 0.00 0.00 0.00 88 1009.4
20260509085612 13 249 0.0 1.6 0.00 0.00 0.00 88 1009.4
20260509085108 13 247 1.6 1.6 0.00 0.00 0.00 89 1009.5
20260509084605 13 247 1.6 1.6 0.00 0.00 0.00 88 1009.3
20260509084057 13 247 1.6 3.2 0.00 0.00 0.00 88 1009.5
20260509083554 13 247 0.0 1.6 0.00 0.00 0.00 88 1009.5